Location: Briis
(48.6240°N, 2.1211°E)
Time: 18:28:47
(UTC+00:00)

Cosmos 2263 Rocket - Pass Details

Date: 25 September 2020
Orbit: 822 x 849 km, 71.0° (Epoch: 21 October)

Event Time Altitude Azimuth Distance (km) Brightness Sun altitude
Rises 00:55:53 0° 336° (NNW) 3,399 5.8 -39.8°
Reaches altitude 10° 00:58:50 10° 350° (N) 2,466 5.1 -39.6°
Maximum altitude 01:03:20 24° 43° (NE) 1,698 4.2 -39.3°
Enters shadow 01:03:52 23° 51° (NE) 1,710 4.2 -39.3°
